GFSSGP_925_spd_021.txt.gz
Wind_Speed
8 4 1 2 3 2 4 8 10 7 7 4 6 6 2 3 6 5 19 26 23 27 33 32 29 26 23 21 19 17 15 13 11 10 9 8 6 5 5 3 2 3 3 3 1 1 1 1 1
7 3 2 3 1 2 5 9 1 4 1 13 8 1 6 7 14 8 14 22 20 25 34 33 30 27 24 22 20 18 17 15 13 11 9 8 7 6 5 3 3 4 4 4 3 3 3 3 3
8 5 1 3 4 6 5 6 6 6 7 9 4 3 2 5 5 7 25 24 23 24 30 30 29 26 24 22 21 19 18 16 13 11 9 8 7 6 4 3 4 6 6 5 5 6 6 6 8
4 2 3 2 9 13 11 11 5 4 9 21 11 2 4 6 4 13 27 23 21 20 23 29 31 29 26 24 22 21 18 16 14 12 10 8 6 4 3 5 7 7 7 7 8 9 9 8 9
7 2 3 4 9 14 14 13 12 13 12 25 14 6 8 14 24 16 24 23 22 23 23 28 33 33 30 27 25 23 20 19 17 14 12 10 8 5 6 7 8 8 8 9 10 12 12 12 12
3 2 2 5 11 17 16 14 6 8 2 7 4 8 4 23 20 17 16 23 27 27 24 26 34 34 34 31 28 26 23 21 20 18 15 13 10 8 8 8 8 9 10 11 10 12 12 12 12
4 2 6 8 15 19 16 9 4 3 6 4 4 5 7 8 19 20 19 16 32 31 33 30 33 38 36 35 32 29 27 24 23 21 18 16 14 11 9 8 9 10 10 12 14 15 15 14 15
2 1 5 6 13 20 16 11 8 6 1 2 5 3 4 5 17 18 17 9 8 39 34 35 36 37 39 37 35 33 30 28 26 24 21 19 17 14 11 8 10 11 11 11 13 15 15 15 15
7 3 5 11 11 16 17 12 10 3 4 4 4 4 8 21 14 7 5 4 9 15 39 41 38 39 40 41 39 36 33 31 29 26 24 21 20 16 12 10 11 13 12 12 12 14 15 14 14
13 6 10 12 15 17 14 10 18 15 7 12 13 19 32 30 4 5 5 8 15 21 29 37 41 41 42 41 42 40 37 35 33 30 27 25 21 16 12 11 11 14 13 12 12 9 9 12 14
18 22 16 16 19 21 20 20 14 16 8 6 5 10 14 13 9 1 5 12 19 22 5 33 41 41 42 39 40 41 40 39 37 33 29 27 21 17 13 17 15 15 17 15 13 11 11 11 8
18 20 20 15 20 23 23 20 19 17 11 8 10 7 4 8 5 7 8 14 23 25 7 15 29 41 42 37 39 39 38 39 39 33 31 27 23 19 19 16 15 15 16 16 15 12 13 13 11
24 21 18 19 20 23 26 26 22 22 17 11 10 13 11 9 9 15 17 17 23 23 11 11 24 39 44 40 40 37 37 35 32 31 32 30 25 22 22 18 16 12 10 8 11 14 9 10 14
15 17 21 17 22 22 24 26 21 19 11 15 16 18 12 10 10 11 17 24 27 16 10 15 23 39 46 43 42 40 36 35 30 29 28 31 28 25 18 17 17 16 14 13 13 11 9 10 13
18 20 19 23 22 26 21 28 29 19 16 22 16 15 11 11 14 12 24 28 18 10 10 13 22 35 44 45 41 39 35 33 31 31 29 32 30 23 17 16 11 12 14 14 15 14 13 13 14
18 15 21 22 22 23 12 40 20 15 20 15 21 23 17 11 12 18 27 17 14 15 14 17 23 34 45 43 38 34 31 33 32 31 27 30 29 21 18 17 15 12 13 14 15 18 18 17 16
17 21 22 24 22 18 14 33 17 16 19 22 25 24 20 18 10 16 17 21 24 18 15 18 23 31 42 43 38 26 26 23 30 27 22 23 22 20 17 16 15 13 14 14 14 15 16 17 19
12 21 24 29 11 18 23 31 29 29 24 24 22 19 18 13 11 14 26 20 17 15 14 20 29 31 37 35 34 26 22 22 21 23 21 21 20 18 12 15 15 14 15 15 15 15 16 18 18
15 18 21 20 18 15 23 25 25 21 12 14 14 14 15 14 11 15 10 14 18 11 11 23 26 30 33 33 31 28 22 21 21 13 19 16 16 14 15 11 11 13 15 15 14 15 17 17 16
19 23 24 15 12 13 20 18 22 23 14 17 22 11 11 8 8 9 13 20 15 18 17 19 25 32 32 31 28 29 24 24 20 14 16 16 17 14 11 13 11 12 15 15 15 15 12 12 11
25 26 20 19 10 17 15 15 19 17 15 8 10 9 9 12 11 10 10 10 19 19 21 21 24 32 29 31 26 23 20 18 19 16 17 18 15 13 9 9 9 10 11 11 9 8 10 11 11
24 15 21 18 11 16 10 16 21 13 17 19 18 14 19 14 15 13 10 7 22 21 22 24 23 29 25 29 26 27 19 15 16 21 20 17 15 11 7 8 8 9 7 7 6 7 10 11 12
24 15 18 13 16 17 19 9 18 9 8 9 10 11 11 13 13 12 8 13 23 24 23 22 26 27 25 26 22 20 19 17 19 14 15 16 13 10 8 6 7 5 6 7 7 8 10 12 13
17 16 18 16 12 11 19 15 25 14 11 9 9 10 12 11 9 6 14 23 22 27 26 27 27 22 22 22 20 19 15 12 19 20 19 16 12 8 7 8 6 4 5 6 7 6 8 10 13
16 12 6 10 10 17 14 12 18 7 13 22 15 13 6 8 13 18 19 15 19 22 27 27 25 21 20 22 19 15 16 15 15 15 12 12 8 5 7 6 3 6 5 5 5 6 7 8 9
13 15 9 13 12 17 13 8 11 19 12 10 10 8 8 11 13 12 14 14 18 22 26 24 24 24 20 20 17 14 13 12 10 7 9 10 7 5 6 6 5 4 4 5 6 6 7 6 6
19 16 20 17 10 8 5 13 21 26 20 11 14 10 11 14 14 15 12 11 19 22 24 26 27 22 20 19 19 14 10 10 13 10 8 8 7 8 8 6 3 3 4 4 6 8 8 6 4
18 11 7 11 13 13 7 13 12 12 19 16 8 15 13 14 15 13 11 13 20 23 28 27 25 22 21 19 19 15 16 12 9 9 10 8 10 7 10 4 3 3 0 2 4 5 6 8 6
7 16 11 9 7 11 6 10 11 19 15 11 12 17 17 16 16 13 12 17 20 24 27 28 25 22 22 19 18 14 13 13 11 9 9 10 8 13 7 5 4 2 1 2 2 3 4 6 4
18 21 16 9 19 9 4 9 8 6 7 10 14 17 16 18 15 15 16 13 17 21 25 26 25 23 22 19 16 15 14 12 11 9 10 12 9 11 7 5 6 2 2 2 1 2 8 5 4

GFSSGP_925_spd_024.txt.gz
Wind_Speed
5 2 1 2 2 3 3 6 5 6 8 3 6 6 6 4 5 4 2 29 19 34 38 34 28 25 21 20 19 18 17 15 14 13 13 12 10 8 7 6 5 5 5 4 3 3 2 2 2
4 4 2 2 3 1 4 6 7 2 3 9 11 7 7 3 1 6 12 24 24 34 37 35 31 27 25 23 21 20 18 16 15 13 12 12 11 10 8 6 5 6 6 5 4 3 3 4 4
4 3 3 3 3 5 4 5 5 5 4 5 4 3 5 4 3 7 7 26 26 34 36 36 34 31 28 26 25 23 21 19 17 15 13 12 12 10 9 8 8 8 7 6 6 6 6 6 7
4 3 3 1 8 7 5 13 2 4 5 6 2 2 4 5 7 13 26 26 26 32 35 36 36 34 31 30 28 27 25 22 19 17 15 14 13 12 10 10 9 8 8 9 9 9 9 9 9
2 2 0 3 6 6 11 9 5 6 3 3 3 5 2 3 22 27 27 27 29 32 36 36 36 35 33 32 30 29 28 26 23 20 18 17 15 13 12 11 10 10 10 11 11 11 13 13 12
2 1 1 5 7 7 5 6 11 5 2 9 2 3 4 13 29 33 29 26 28 29 35 36 37 37 37 35 33 32 30 28 26 24 21 19 16 14 13 11 11 10 10 11 12 13 13 13 13
5 3 4 4 5 6 0 7 5 4 4 4 4 6 2 3 25 32 29 28 29 28 32 34 39 40 38 38 36 35 34 32 30 27 24 22 18 16 14 11 10 10 11 12 13 14 14 13 14
4 4 3 5 5 7 4 10 5 8 8 1 6 6 4 6 17 24 26 29 29 33 33 34 37 43 43 41 40 38 37 35 33 31 28 24 21 18 16 12 11 11 11 10 11 12 13 13 13
7 0 5 6 6 7 9 7 26 2 9 2 3 6 11 11 16 13 17 17 27 29 33 36 38 43 47 44 43 39 37 36 34 32 30 27 25 22 18 15 12 13 12 12 11 11 11 11 13
5 7 9 9 5 5 5 6 15 19 10 7 7 4 13 6 20 16 10 13 27 31 37 37 39 42 46 44 42 42 40 39 38 36 34 31 28 24 19 15 13 15 14 14 11 10 9 9 10
6 14 13 14 11 10 11 12 6 17 16 8 4 8 7 8 12 4 8 9 12 17 29 36 40 44 45 44 43 43 44 43 41 39 36 33 29 24 20 17 14 14 15 16 13 12 13 10 10
14 15 16 16 17 14 16 14 16 15 18 12 10 8 6 7 8 9 13 18 18 20 19 26 39 45 47 44 46 46 46 46 44 42 38 34 29 25 20 19 15 17 17 18 16 14 14 14 12
20 20 15 13 16 20 19 21 20 23 18 16 11 8 8 8 9 15 24 26 24 24 20 28 32 44 49 47 45 44 46 47 44 42 38 35 30 26 21 19 17 17 17 17 15 16 16 16 16
4 6 13 17 19 19 19 22 20 22 19 21 14 12 11 10 11 14 20 24 28 30 28 25 32 40 45 45 48 48 45 46 44 41 38 36 31 24 22 19 19 18 17 16 13 13 16 15 15
11 10 14 20 12 17 16 26 28 21 21 19 15 12 11 11 12 12 25 25 31 35 29 24 31 38 42 44 48 44 42 40 40 38 36 36 29 26 24 22 19 18 17 16 14 13 13 14 13
3 4 17 21 18 10 8 35 20 11 15 20 17 18 18 14 15 25 33 33 27 25 27 30 31 33 37 40 44 43 41 39 37 34 33 29 28 28 25 21 18 14 15 15 15 15 16 18 19
7 17 20 26 6 4 11 39 15 14 17 13 11 14 15 19 18 21 36 37 30 21 28 27 26 29 36 39 40 39 38 35 34 33 32 27 28 27 27 22 17 15 16 16 16 17 18 20 21
9 19 19 16 6 13 18 36 21 18 19 22 22 23 20 20 18 23 35 42 29 26 29 26 25 31 34 35 34 33 32 32 31 30 28 28 27 28 25 19 13 15 17 17 17 18 18 20 20
10 11 10 5 10 11 22 24 21 17 16 12 13 17 19 19 17 21 24 22 18 17 19 20 24 31 32 32 31 30 31 29 29 26 27 24 28 28 24 17 15 18 17 17 17 15 15 17 19
14 16 19 6 9 15 18 28 24 23 22 19 21 20 17 15 9 10 15 20 19 22 24 21 26 31 35 31 30 26 32 31 30 25 21 22 25 25 20 16 15 14 13 13 13 11 13 13 11
16 19 12 8 12 22 9 19 8 15 11 10 10 15 10 12 11 10 10 19 16 18 21 23 27 29 31 32 29 24 27 25 19 21 20 24 24 22 18 14 11 10 11 11 10 10 12 10 9
19 12 13 16 13 13 8 19 22 14 22 16 12 11 12 14 9 10 12 7 16 19 20 22 23 27 27 30 33 33 22 20 19 21 20 24 23 19 13 11 9 9 9 9 8 8 11 10 9
19 10 16 13 8 15 16 6 25 10 16 17 15 14 11 11 11 11 10 9 19 25 25 24 25 26 30 30 30 30 27 21 20 18 19 21 18 13 12 10 7 7 8 8 8 9 10 12 12
6 9 15 12 2 8 14 11 9 14 15 8 9 9 11 11 10 8 4 15 18 27 28 29 30 30 29 26 27 27 25 20 19 18 21 19 16 12 9 8 8 7 6 8 8 7 9 10 12
4 1 3 2 5 16 12 10 21 9 8 15 16 15 14 8 4 7 11 12 14 20 26 29 31 29 26 25 24 23 21 21 24 24 23 19 15 13 10 9 9 10 8 6 6 7 8 8 11
7 9 5 7 4 4 12 9 7 16 20 26 21 18 4 5 6 7 7 9 15 20 23 26 29 28 28 26 24 22 22 22 21 19 18 17 13 8 7 8 7 7 7 7 8 8 8 7 9
4 10 5 6 15 1 5 8 9 19 24 21 19 8 8 8 9 11 10 10 16 17 24 28 29 30 28 28 25 21 19 19 18 16 15 12 8 7 10 8 6 6 7 8 10 10 10 8 6
7 5 5 3 7 6 5 6 8 7 11 12 12 10 8 8 11 11 11 11 16 21 27 29 29 30 28 25 21 21 19 17 14 11 11 8 9 11 9 7 5 7 6 6 7 8 10 10 9
3 1 3 3 4 8 3 6 11 11 13 18 8 14 16 14 13 12 11 13 18 22 25 27 28 27 26 23 21 20 17 13 12 10 11 12 12 10 9 5 4 3 2 3 4 6 7 8 6
4 6 5 3 6 5 2 12 17 8 12 12 14 16 13 13 12 13 12 12 17 18 24 26 25 25 25 22 21 20 19 17 15 12 12 11 11 11 7 6 6 5 3 2 3 8 7 7 7

GFSSGP_925_spd_030.txt.gz
Wind_Speed
4 3 4 0 2 4 3 6 3 3 3 1 1 6 11 5 7 5 2 24 14 30 31 35 33 31 28 27 26 25 24 23 22 21 20 19 17 16 14 13 12 10 8 7 6 5 4 4 3
6 6 1 1 3 2 5 4 7 6 2 9 4 2 2 5 3 2 7 25 16 30 32 37 35 33 29 28 27 26 25 24 23 22 21 19 18 17 16 14 12 11 10 8 6 5 3 2 2
8 4 2 3 4 6 5 4 5 3 6 4 3 3 3 4 3 4 5 27 18 27 32 38 36 34 30 29 29 28 26 25 24 22 20 19 18 16 15 14 12 11 10 9 7 5 3 2 1
5 2 3 1 7 6 6 3 2 7 7 5 5 4 2 1 7 11 16 27 20 27 35 38 37 34 32 32 31 29 27 26 24 22 19 19 17 16 14 13 12 11 10 9 8 6 4 3 3
2 2 2 3 6 5 5 6 3 7 4 6 3 3 2 5 3 13 23 28 23 29 35 38 37 36 35 34 33 31 30 27 24 22 21 19 18 17 15 12 10 10 10 10 8 6 5 5 6
3 2 2 6 6 4 6 7 4 3 4 5 5 4 3 4 5 13 25 25 24 27 34 37 38 38 36 35 34 33 31 29 27 24 23 21 19 17 15 12 10 10 11 9 9 8 6 6 9
4 4 4 3 4 5 5 5 5 5 2 3 4 3 4 2 9 12 20 23 21 23 29 35 36 39 38 37 36 35 33 31 28 27 24 21 19 18 15 12 10 10 10 9 9 7 7 8 8
4 4 3 5 5 6 4 3 3 3 1 2 6 1 2 6 11 10 13 17 20 22 27 31 36 39 39 40 39 37 35 33 31 29 27 25 23 20 17 14 12 10 10 8 8 7 6 7 8
4 2 5 7 8 5 2 1 3 3 1 0 2 3 4 4 10 10 12 13 17 19 23 27 35 38 41 41 40 39 37 35 34 33 31 28 27 24 20 17 15 12 11 10 10 8 7 6 7
5 5 9 6 7 4 4 2 5 4 7 3 1 3 7 5 1 7 10 17 21 24 28 30 33 39 40 41 41 39 40 39 39 37 35 33 31 27 24 20 17 14 13 12 12 11 9 8 7
7 11 11 5 7 4 7 8 3 3 5 6 5 4 5 8 6 7 16 22 29 33 30 34 35 38 42 44 43 43 43 43 41 41 39 37 32 29 27 24 20 17 15 16 15 14 12 10 9
5 13 13 7 4 4 6 6 12 12 8 9 7 8 5 10 10 9 15 23 29 33 36 36 36 38 42 43 45 45 46 47 47 46 42 40 36 32 28 27 23 21 19 18 18 17 14 12 11
14 7 10 16 9 8 6 15 11 22 13 12 14 14 13 10 11 21 21 22 23 25 30 33 34 36 40 43 43 43 48 48 49 46 45 41 38 36 33 29 26 24 20 20 18 17 15 13 12
1 9 10 6 6 5 8 15 5 5 8 12 13 16 11 11 11 17 18 25 26 25 23 25 31 36 38 43 46 48 41 41 44 46 47 44 43 38 34 33 30 25 22 20 18 17 17 14 14
4 6 3 7 6 9 8 20 28 20 13 19 21 19 15 15 14 13 27 24 30 28 25 27 29 29 37 43 44 44 43 43 45 45 42 41 43 37 35 34 32 26 22 20 19 17 17 15 14
4 5 16 14 9 6 10 29 20 9 16 21 21 16 15 15 11 22 27 26 27 28 33 36 31 25 30 38 41 42 42 43 42 39 37 39 36 35 34 34 30 22 20 20 18 18 17 15 15
4 16 9 5 8 10 13 31 7 7 8 13 11 11 12 14 11 18 26 28 31 37 38 38 33 29 30 34 38 38 39 40 37 34 33 31 30 31 34 34 26 22 19 21 20 18 16 16 17
9 5 2 5 5 15 14 32 14 10 12 17 11 14 13 10 11 17 29 34 39 38 42 39 37 30 30 30 30 31 31 31 31 30 28 25 27 31 33 33 32 25 23 21 18 17 17 19 18
4 2 1 3 4 4 17 21 16 10 11 16 18 19 20 20 15 19 28 33 35 39 39 36 31 27 25 27 26 24 25 26 25 25 21 25 26 29 31 28 24 22 23 21 17 17 16 15 14
6 1 3 5 8 4 7 12 9 8 13 14 18 17 14 13 9 11 20 31 32 36 35 30 26 22 25 28 26 15 23 19 23 17 20 22 24 27 24 26 27 23 21 17 17 17 12 8 9
4 9 3 6 8 12 8 18 12 8 12 16 17 15 15 15 13 13 14 18 30 33 34 30 29 23 23 26 22 14 16 11 18 20 20 22 23 22 25 25 23 20 16 17 17 15 13 8 7
5 3 1 2 3 8 2 9 15 15 18 14 12 14 14 12 14 13 10 12 25 35 26 24 21 20 24 26 26 26 18 13 14 25 23 22 22 22 23 22 20 17 14 14 14 12 11 11 9
9 8 8 7 6 3 3 5 13 5 11 12 16 19 18 17 12 12 13 15 26 28 22 17 17 17 21 25 24 25 21 19 20 24 23 22 19 18 18 19 16 13 13 11 10 11 11 12 10
6 6 4 1 2 7 7 6 21 9 12 7 14 13 12 11 10 10 10 13 15 11 8 11 15 17 21 24 25 26 27 25 28 28 25 19 16 16 16 15 13 12 11 10 10 10 10 11 11
5 5 2 1 2 12 12 9 24 4 6 4 9 9 10 9 9 9 7 3 3 4 8 14 19 22 23 25 26 27 28 30 30 26 24 21 20 19 18 16 14 13 11 10 9 10 11 11 12
7 7 5 6 6 5 6 12 8 11 13 10 6 9 10 11 9 6 4 4 4 9 12 19 24 23 22 23 24 25 26 27 27 26 25 25 24 19 16 14 12 10 10 10 9 10 10 11 11
4 4 7 3 3 1 5 7 8 16 10 8 8 9 11 11 8 5 6 6 8 12 17 25 26 25 24 24 25 24 23 24 24 22 22 21 17 15 12 10 9 8 8 9 9 11 12 11 12
4 4 3 1 4 5 6 6 6 6 2 4 8 11 13 7 5 7 8 10 10 15 21 25 26 27 25 25 24 22 21 20 20 21 21 17 14 11 10 10 8 7 6 6 6 9 10 13 15
1 1 2 2 5 4 2 5 6 15 4 8 10 11 13 6 9 9 10 9 15 19 21 24 26 26 25 25 25 24 22 21 20 18 15 13 12 12 12 9 7 4 3 3 5 6 6 8 6
2 3 1 4 8 4 3 6 6 6 7 8 13 11 6 4 9 11 12 10 12 16 18 22 26 29 28 27 26 24 21 19 17 14 13 12 14 12 10 8 4 2 3 5 5 6 9 12 13

GFSSGP_925_spd_033.txt.gz
Wind_Speed
7 5 4 2 3 1 4 5 2 4 3 3 3 5 18 5 11 3 3 19 14 27 30 35 32 31 30 28 26 25 24 23 22 21 20 19 18 16 15 14 13 12 11 9 8 7 6 6 4
9 7 1 2 3 5 5 5 8 9 2 8 8 4 8 9 6 2 5 20 16 26 30 35 33 32 30 30 29 28 26 24 22 21 20 18 17 15 14 12 11 11 10 10 10 8 7 6 5
11 3 3 3 4 9 4 7 7 2 8 5 3 3 3 3 3 3 6 23 18 25 29 34 34 33 32 30 30 30 28 26 24 22 21 19 17 15 14 13 12 11 11 11 10 8 6 6 4
5 3 1 5 13 9 6 2 2 8 3 3 4 2 2 1 1 7 17 23 19 24 27 33 34 34 33 32 31 31 29 27 26 25 23 21 20 19 16 14 13 13 12 10 9 8 7 5 4
1 2 5 5 12 7 10 9 9 12 7 6 5 4 2 1 2 9 22 24 21 22 28 32 35 34 34 33 33 31 29 29 27 26 25 23 22 20 18 15 14 13 12 11 10 8 7 6 5
2 1 4 14 13 7 9 10 9 9 8 6 5 4 3 2 8 15 21 22 19 21 26 28 36 35 36 34 33 31 30 29 29 28 27 25 24 22 20 18 16 14 12 11 10 8 7 6 6
5 3 9 10 10 7 15 13 12 10 2 4 3 7 1 4 3 11 16 16 15 16 21 26 29 36 37 35 33 32 32 31 31 29 28 27 25 24 22 20 16 14 12 11 10 9 7 6 8
4 3 8 9 11 12 4 4 3 12 7 3 5 4 4 1 9 10 10 9 10 12 16 22 26 27 30 29 35 34 34 33 33 31 29 28 26 24 22 19 16 14 13 12 11 9 7 7 7
4 7 12 14 12 8 1 4 2 3 6 4 3 3 5 7 10 9 7 8 10 13 18 22 26 28 29 27 27 36 36 35 34 32 31 29 24 23 20 19 18 15 15 13 11 9 8 7 7
10 10 16 10 14 8 13 9 4 3 4 4 2 8 8 7 5 2 3 8 13 17 20 23 27 30 29 28 28 29 29 30 32 31 29 29 23 22 22 22 20 16 15 13 11 10 9 7 6
11 19 20 16 16 12 15 12 4 6 11 12 5 2 7 16 8 6 9 13 16 19 16 23 27 29 31 27 26 27 29 30 30 30 30 28 25 24 22 18 18 16 15 11 11 10 10 9 8
14 19 21 16 6 9 18 15 17 16 19 11 15 12 10 11 14 13 13 17 19 15 19 20 26 29 32 30 29 29 31 32 32 30 29 29 27 25 24 22 19 16 12 12 11 10 11 11 11
23 23 16 21 14 12 10 22 20 21 19 18 20 20 18 15 14 15 13 16 19 14 24 28 24 29 31 34 29 32 35 33 34 30 31 35 31 29 26 22 19 17 14 11 10 11 11 12 12
11 21 23 17 15 19 18 26 19 22 14 16 16 19 18 16 14 16 16 19 18 28 30 27 26 27 27 33 37 41 35 34 31 31 33 36 33 30 28 25 23 25 21 13 11 11 11 13 12
16 20 15 16 23 16 9 22 34 22 22 22 25 21 22 21 21 18 21 20 22 26 27 25 23 23 26 32 37 35 31 31 30 29 29 28 31 28 32 27 26 28 26 24 22 19 15 13 12
11 15 22 25 14 10 17 30 37 21 21 26 25 22 21 21 19 22 21 20 24 23 25 26 27 28 26 30 33 33 29 27 25 23 23 24 28 28 29 26 28 31 29 25 19 15 12 13 13
13 21 26 22 23 17 19 31 28 22 16 19 19 17 15 17 15 19 21 20 24 25 26 33 31 27 25 24 27 26 23 23 21 20 20 22 25 25 28 31 33 32 26 22 17 16 13 11 12
17 20 20 21 13 21 25 33 22 13 12 18 17 17 18 20 20 20 21 21 27 32 34 33 29 24 19 18 18 16 18 18 19 19 19 21 22 24 26 24 24 22 20 17 16 15 11 11 11
16 9 21 18 10 21 25 28 24 21 23 25 23 22 22 22 20 24 24 26 26 29 32 29 24 17 11 11 13 16 19 17 17 18 18 20 20 21 22 20 21 22 19 18 20 13 10 10 9
21 20 12 9 10 7 15 21 18 17 19 20 22 22 23 23 21 19 23 25 26 29 33 31 24 19 14 14 14 9 13 13 14 14 16 18 19 19 19 19 19 22 18 18 15 12 7 8 9
17 22 21 11 10 14 14 23 23 21 20 21 23 24 23 22 21 19 19 21 23 22 30 25 21 18 15 15 14 12 12 9 12 15 17 17 17 17 18 18 19 20 18 17 16 14 12 10 7
18 10 13 19 15 13 4 12 13 12 17 17 18 19 21 21 20 21 19 17 22 25 18 21 20 18 14 17 18 20 14 12 10 14 15 17 16 16 17 18 19 20 21 20 17 12 13 10 9
17 15 11 6 9 12 20 12 19 14 22 19 17 19 22 22 22 22 21 20 25 18 19 20 14 12 12 17 18 18 12 9 12 15 17 16 15 15 16 18 19 20 20 18 13 11 12 11 9
10 16 17 15 11 14 18 11 23 18 21 20 23 20 18 18 17 17 18 17 19 12 9 7 8 10 14 17 16 16 15 14 16 18 19 17 16 15 14 17 17 17 15 12 10 10 11 11 11
9 11 9 11 13 18 6 13 23 3 9 12 9 13 16 14 12 12 11 9 10 7 6 6 11 14 16 16 15 15 15 16 19 23 21 19 17 16 16 17 15 13 11 9 10 10 9 10 10
14 15 9 16 14 19 13 12 8 9 10 11 12 14 13 13 12 12 10 6 5 6 7 10 14 17 17 16 16 15 16 17 20 21 21 16 17 15 17 13 12 9 8 8 9 8 8 9 10
13 10 19 6 4 11 12 19 17 16 16 10 11 10 15 15 15 10 6 5 6 9 11 14 17 17 17 18 17 17 17 19 17 18 17 17 14 15 14 11 9 8 8 9 9 8 8 9 10
8 5 10 9 6 8 9 18 9 7 7 3 12 17 18 18 10 2 6 8 11 12 15 16 18 19 19 19 19 18 17 17 18 17 16 16 15 13 12 10 9 9 8 8 8 8 10 10 11
9 7 6 7 11 3 3 3 2 6 11 11 14 17 17 15 4 4 8 10 14 16 17 18 20 21 20 20 19 19 17 17 17 17 16 15 14 12 12 11 10 8 7 7 8 8 8 9 7
7 4 9 8 17 10 8 5 4 12 10 15 18 18 20 11 4 2 7 11 15 18 19 19 20 20 20 21 21 21 20 19 18 16 14 13 13 13 12 10 8 7 5 5 6 7 9 13 10

GFSSGP_925_spd_036.txt.gz
Wind_Speed
10 6 6 6 6 7 14 8 4 8 6 3 1 6 15 12 16 2 6 17 17 27 28 34 32 30 29 28 27 27 26 26 25 24 23 21 20 17 16 14 12 10 9 9 8 7 6 6 5
7 7 8 3 8 11 12 10 12 8 6 4 5 9 10 9 8 3 12 16 20 25 27 31 35 31 30 30 28 28 27 27 26 25 24 22 20 18 17 15 14 12 10 9 9 8 7 6 4
8 8 6 5 12 14 8 9 9 5 4 5 4 9 6 11 7 1 11 19 19 22 25 30 36 34 32 30 30 29 28 27 26 25 25 23 21 20 18 17 15 14 13 12 10 8 8 7 5
8 7 5 10 17 17 11 4 3 3 5 3 9 7 5 1 2 8 19 20 20 21 24 29 35 35 33 31 30 29 29 27 27 25 24 23 22 21 19 17 15 14 14 12 11 9 7 6 5
7 4 11 15 21 19 10 12 9 11 10 9 9 9 5 7 6 13 23 18 18 19 21 23 34 35 34 32 30 29 28 27 26 25 24 24 22 20 18 17 16 16 15 14 12 10 8 7 6
7 6 10 17 19 18 15 15 13 13 12 11 11 10 7 8 12 17 21 18 15 15 18 19 31 35 33 32 31 30 30 29 28 27 26 24 23 20 20 18 17 16 16 15 14 12 10 8 7
15 11 17 20 17 16 18 17 15 14 9 12 10 15 8 11 14 16 19 16 14 13 15 17 19 30 35 31 31 31 31 31 30 29 27 26 24 23 22 20 17 16 16 15 13 11 9 8 7
11 12 22 20 17 22 14 11 14 13 12 3 6 9 11 14 13 14 16 16 14 12 13 14 17 22 25 25 32 32 32 32 31 30 28 27 25 24 23 21 19 18 16 14 13 11 10 9 8
14 11 17 23 20 13 6 14 15 6 9 6 3 3 7 10 11 13 14 15 14 12 12 14 16 20 22 24 23 33 33 32 32 31 30 28 22 21 21 20 20 18 16 14 13 12 11 9 8
16 17 27 21 14 11 16 15 11 7 17 12 7 8 9 11 10 10 11 15 17 16 15 15 17 20 20 21 22 21 26 26 27 26 25 27 24 23 23 21 22 19 17 15 14 13 12 10 9
21 26 22 23 15 12 17 18 15 14 18 17 14 8 2 2 5 7 9 10 9 8 12 16 17 19 21 20 21 22 23 25 27 28 30 27 26 25 24 21 20 18 18 14 14 13 12 12 9
26 26 26 25 15 11 20 20 23 22 20 19 6 6 11 12 11 11 13 12 13 7 7 12 15 17 19 20 21 22 23 24 26 29 32 30 31 28 26 24 21 21 19 18 18 18 15 14 12
28 29 23 23 22 19 16 23 24 25 23 22 21 18 17 17 17 19 17 17 14 14 10 9 9 15 16 20 22 24 25 26 26 27 29 32 30 28 26 25 24 22 20 19 18 17 16 16 14
16 25 29 28 22 20 24 27 21 28 23 24 21 22 22 19 17 17 17 18 18 18 18 15 12 13 15 20 22 26 26 25 25 25 27 32 30 27 27 27 26 24 22 20 18 17 13 13 13
23 26 24 25 27 28 16 27 35 30 25 22 21 21 22 21 22 20 23 20 21 20 17 16 13 12 17 19 21 22 24 21 24 24 26 28 31 28 28 28 27 25 22 19 16 14 13 12 13
17 22 24 33 25 23 23 29 38 29 29 25 26 24 23 24 22 25 25 20 20 16 12 15 15 14 17 20 21 22 22 22 22 22 23 27 28 29 28 28 27 24 23 20 18 15 13 13 15
20 24 30 30 27 24 19 35 37 32 29 25 25 24 22 24 23 19 18 19 17 16 15 17 17 20 21 20 21 23 21 21 21 21 22 23 25 26 26 25 25 25 22 19 17 16 15 14 12
24 26 27 28 21 25 29 35 29 26 13 24 27 26 24 23 19 21 20 18 19 19 18 21 27 22 18 18 17 19 19 19 19 20 20 20 22 24 25 23 23 23 22 19 18 16 14 12 11
25 28 22 19 22 26 26 34 31 28 29 28 24 21 20 21 20 24 24 23 23 24 24 24 24 21 16 15 17 17 20 17 17 18 18 19 20 23 24 21 21 22 22 19 17 15 15 12 9
22 26 31 20 15 20 25 32 29 27 29 28 27 27 26 24 23 22 27 25 24 26 24 25 24 19 16 15 16 14 15 16 15 16 16 19 20 21 21 20 19 21 20 19 18 17 12 10 10
23 25 25 27 20 17 21 27 27 22 24 24 24 24 24 26 25 23 22 25 27 26 24 21 20 17 17 17 15 13 12 10 14 15 16 19 19 20 19 19 18 19 18 19 18 15 13 10 9
21 22 26 24 22 23 21 20 23 25 29 29 27 25 25 25 25 23 23 24 28 27 22 19 17 15 15 18 19 19 16 13 14 16 16 18 18 18 18 18 17 18 18 16 16 13 11 11 10
20 18 24 23 23 25 30 19 19 19 21 19 18 20 23 24 24 25 24 24 26 25 24 22 20 18 17 18 18 18 16 12 14 16 19 18 18 18 17 17 17 18 16 15 12 11 12 11 12
14 17 20 19 14 18 24 22 20 21 26 22 18 20 21 21 19 18 20 22 21 18 19 19 17 15 15 16 17 17 17 15 17 19 20 20 19 18 18 18 18 16 14 13 11 12 10 10 10
16 16 11 15 18 19 21 20 19 7 1 1 8 15 8 11 13 13 12 12 14 14 15 14 13 13 14 16 17 17 17 17 19 22 21 22 21 19 19 19 16 15 13 12 11 10 9 11 11
21 19 15 20 17 20 26 23 16 16 14 15 12 10 10 11 11 10 12 10 11 13 12 10 12 13 15 16 17 17 18 19 20 19 21 19 19 19 19 17 15 13 13 11 10 10 11 11 12
20 20 21 24 19 16 18 26 26 19 11 9 3 6 8 10 11 14 11 8 8 8 8 11 13 16 17 19 19 20 19 21 21 23 18 19 19 18 17 16 14 12 10 10 11 11 12 11 12
8 13 4 15 13 20 17 22 15 24 27 15 0 9 13 15 12 6 3 7 7 10 13 15 18 20 20 21 21 21 22 21 22 20 20 19 17 17 16 14 11 10 10 11 12 11 12 12 10
5 9 12 14 17 13 12 16 19 14 11 8 6 12 15 15 11 7 2 5 11 15 18 19 20 22 21 22 22 22 21 21 21 20 19 17 16 15 13 11 11 11 9 9 9 9 10 11 11
8 11 5 5 20 16 10 3 11 18 14 6 11 15 16 15 8 4 2 6 13 17 19 20 21 22 22 23 22 21 21 21 20 19 17 16 14 12 12 12 10 9 8 7 8 9 9 13 13